Regional Weather Roundup
Issued by NWS

Home | Current Version | Previous Version | Graphics & Text | Print | Product List | Glossary Off
Versions: 1 2 3 4 5 6 7 8 9 10 11 12 13 14 15 16 17 18 19 20 21 22 23 24 25 26 27 28 29 30 31 32 33 34 35 36 37 38 39 40 41 42 43 44 45 46 47 48 49 50

000
ASUS43 KTOP 270959
RWRKS

WEATHER ROUNDUP FOR KANSAS
NATIONAL WEATHER SERVICE GOODLAND KS
500 AM CDT THU JUL 27 2017

NOTE:  "FAIR" INDICATES FEW OR NO CLOUDS BELOW 12,000 FEET WITH NO
SIGNIFICANT WEATHER AND/OR OBSTRUCTIONS TO VISIBILITY.

KSZ001>006-013>018-027>032-041>047-271100-
NORTHWEST KANSAS

CITY           SKY/WX    TMP DP  RH WIND       PRES   REMARKS
GOODLAND       CLOUDY    69  67  93 NE7       30.17R
HAYS           CLOUDY    74  70  87 NE13      30.04R
HILL CITY      CLOUDY    73  70  90 NE9       30.08R
RUSSELL        CLOUDY    73  71  93 NE13      30.01S
$$

KSZ061>065-074>080-084>089-271100-
SOUTHWEST KANSAS

CITY           SKY/WX    TMP DP  RH WIND       PRES   REMARKS
DODGE CITY     CLOUDY    74  71  91 N14       30.03R
ELKHART          N/A     68  53  58 N10         N/A
GARDEN CITY    CLOUDY    73  69  87 N8        30.09R
GREAT BEND     CLOUDY    74  72  93 NE15      30.00S
LIBERAL        CLOUDY    76  71  85 NW13      30.10R
$$

KSZ066>073-081>083-090>101-271100-
SOUTHEAST KANSAS

CITY           SKY/WX    TMP DP  RH WIND       PRES   REMARKS
CHANUTE        LGT RAIN  78  75  90 S6        29.94R
COFFEYVILLE    CLOUDY    81  74  79 SW7       29.94R
HUTCHINSON     CLOUDY    75  73  93 NE8       29.94F
MEDICINE LODGE   N/A     77  69  76 CALM      29.93S
NEWTON         FOG       74  74 100 N8        29.96R VSB 1/2
PARSONS        LGT RAIN  79  75  87 SE5       29.95R
WICHITA INTL   MOCLDY    81  70  69 S8        29.92S
WICHITA JABRA  PTCLDY    81  69  67 S16G24    29.92F
WINFIELD       MOCLDY    80  71  74 S9        29.95R
$$

KSZ007>012-019>026-033>040-048>060-102>105-271100-
NORTHEAST KANSAS

CITY           SKY/WX    TMP DP  RH WIND       PRES   REMARKS
CONCORDIA      CLOUDY    74  73  97 NE10      30.01R
EMPORIA        CLOUDY    75  74  96 NE6       29.94R FOG
LAWRENCE       LGT RAIN  75  75 100 N5        29.95R
MANHATTAN      CLOUDY    76  75  97 NE5       29.96R FOG
OLATHE IND     TSTM      74  74 100 W6        29.95R FOG
OLATHE EXE     TSTM      73  73 100 NE7       29.94R FOG
SALINA         CLOUDY    77  73  87 NE12      29.98R
TOPEKA BILLARD CLOUDY    75  75 100 N3        29.95R
TOPEKA FORBES  CLOUDY    76  75  97 N8        29.95R
$$




USA.gov is the U.S. government's official web portal to all federal, state and local government web resources and services.